#timestamp,LO_Frequency,Hit,StdDev 
1549904415.5,286047000.2,N
1549904435.3,286047002.3,N
1549904455.2,286046999.9,N
1549904475.9,286047002.4,N
1549904495.7,286047002.4,N
1549904515.6,286047003.3,N
1549904535.4,286047003.8,N
1549904555.3,286047004.0,N
1549904575.1,286047002.7,N
1549904576.0,286047002.7,N
1549904595.8,286047002.6,N
1549904615.7,286047002.8,N
1549904635.5,286047002.1,N
1549904655.3,286047002.1,N
1549904675.2,286047001.5,N
1549904695.0,286047001.7,N
1549904695.9,286047001.7,N
1549904715.8,286047001.8,N
1549904735.6,286047001.9,N
1549904755.4,286047004.1,N
1549904775.3,286047004.0,N
1549904795.1,286047001.4,N
1549904815.8,286047002.0,N
1549904835.7,286047002.1,N
1549904855.5,286046999.7,N
1549904875.4,286047002.6,N
1549904895.2,286047002.7,N
1549904915.0,286046999.8,N
1549904915.9,286046999.8,N
1549904935.8,286047002.2,N
1549904955.6,286046999.7,N
1549904975.5,286047003.2,N
1549904995.3,286047002.3,N
1549905015.1,286046999.7,N
1549905035.9,286047001.6,N
1549905055.7,286047001.7,N
1549905075.5,286047003.6,N
1549905095.4,286047002.2,N
1549905115.2,286047001.7,N
1549905135.1,286047001.7,N
1549905136.0,286047001.7,N
1549905155.8,286047003.6,Y
1549905175.6,286047002.2,P
1549905195.5,286047002.7,P
1549905215.3,286047001.6,P
1549905235.1,286047001.3,Y
1549905255.9,286047000.1,P
1549905275.7,286047000.5,N
1549905295.6,286046999.7,N
1549905315.4,286046998.5,N
1549905335.2,286046996.5,Y
1549905355.1,286046996.9,P
1549905356.0,286046996.9,N
1549905375.8,286047001.2,N
1549905395.7,286046999.6,N
1549905415.5,286046996.5,N
1549905435.3,286046999.6,N
1549905455.2,286046998.8,N
1549905475.9,286047001.1,N
1549905495.7,286046999.4,N
1549905515.6,286046997.7,N
1549905535.4,286046997.4,N
1549905555.3,286046995.4,N
1549905575.1,286046997.2,N
1549905576.0,286046997.2,N
1549905595.8,286046999.5,N
1549905615.7,286046999.1,N
1549905635.5,286046996.9,N
1549905655.3,286046997.1,N
1549905675.2,286046996.8,N
1549905695.0,286046997.6,N
1549905695.9,286046997.6,N
1549905715.8,286046997.5,N
1549905735.6,286046997.3,N
1549905755.4,286046997.6,N
1549905775.3,286046995.2,Y
1549905795.1,286046998.2,P
1549905815.8,286046998.6,P
1549905835.7,286047002.3,P
1549905855.5,286047000.3,N
1549905875.4,286047000.3,N
1549905895.2,286047002.8,N
1549905915.0,286046999.9,N
1549905915.9,286046999.9,N
1549905935.8,286046999.8,N
1549905955.6,286046999.7,N
1549905975.4,286046999.8,N
1549905995.3,286047002.4,N
1549906015.1,286047002.2,N
1549906035.9,286047001.5,N
1549906055.7,286047004.0,N
1549906075.5,286047002.3,N
1549906095.4,286047001.5,N
1549906115.2,286047004.1,N
1549906135.0,286047001.6,N
1549906166.0,286047004.3,E
1549906175.9,286047001.0,N
1549906195.7,286046996.6,P
1549906215.6,286047001.2,N
1549906235.4,286046998.5,N
1549906255.2,286046999.7,N
1549906275.1,286047002.0,N
1549906276.0,286047002.0,N
1549906295.8,286047002.5,N
1549906315.7,286047000.8,N
1549906335.5,286047000.1,N
1549906355.3,286047002.0,N
1549906375.2,286047001.0,N
1549906395.0,286046998.1,N
1549906395.9,286046998.1,N
1549906415.8,286046998.7,N
1549906435.7,286046998.9,N
1549906455.5,286046998.9,N
1549906475.4,286047000.9,N
1549906495.2,286047000.8,N
1549906515.0,286046998.6,N
1549906515.9,286046998.6,N
1549906535.1,286047001.2,N
1549906536.0,286047001.2,N
1549906555.8,286046998.2,N
1549906575.7,286046998.8,N
1549906595.5,286046999.2,N
1549906615.3,286046997.3,N
1549906635.2,286046996.5,N
1549906655.0,286046999.3,N
1549906655.9,286046999.3,N
1549906675.8,286046998.7,N
1549906695.6,286047000.7,N
1549906715.4,286046998.1,N
1549906735.3,286046996.7,N
1549906755.1,286046999.0,N
1549906775.9,286046998.5,N
1549906795.7,286047000.5,N
1549906815.5,286047000.1,N
1549906835.4,286047000.6,N
1549906855.2,286047000.0,N
1549906875.1,286047000.5,N
1549906876.0,286047000.5,N
1549906895.8,286046999.9,N
1549906915.6,286046998.5,N
1549906935.5,286046999.1,N
1549906955.3,286046998.7,N
1549906975.1,286046999.1,N
1549906995.9,286046997.1,N
1549907015.7,286046997.2,N
1549907035.6,286046996.5,N
1549907055.4,286046994.9,Y
1549907075.2,286046996.8,P
1549907095.1,286046997.2,N
1549907096.0,286046997.2,N
1549907115.8,286046996.7,Y
1549907135.7,286046999.6,P
1549907155.5,286046999.2,N
1549907175.3,286046998.6,N
1549907195.2,286046998.4,N
1549907215.0,286046999.3,N
1549907215.9,286046999.3,N
1549907235.8,286047001.2,N
1549907255.6,286047001.2,N
1549907275.4,286046999.2,N
1549907295.3,286046998.2,N
1549907315.1,286047000.8,N
1549907335.9,286046998.4,N
1549907355.7,286047000.4,N
1549907375.5,286046998.1,N
1549907395.4,286046998.6,N
1549907415.2,286047000.3,N
1549907435.0,286046999.7,N
1549907436.0,286046999.7,N
1549907455.8,286047002.2,N
1549907475.6,286046999.8,N
1549907495.5,286047002.8,N
1549907515.3,286047000.4,N
1549907535.1,286047002.8,N
1549907555.9,286047000.3,N
1549907575.7,286047000.5,N
1549907595.6,286047000.6,N
1549907615.4,286047000.3,N
1549907635.2,286047000.4,N
1549907655.1,286047002.7,N
1549907656.0,286047002.7,N
1549907675.8,286047001.4,N
1549907695.7,286046999.7,N
1549907715.5,286047000.1,N
1549907735.3,286046998.3,N
1549907755.2,286046998.6,N
1549907775.0,286047001.0,N
1549907775.9,286047001.0,N
1549907795.7,286047000.3,N
1549907815.6,286047000.1,N
1549907835.4,286047001.0,N
1549907855.3,286047000.4,N
1549907875.1,286047000.4,N
1549907876.0,286047000.4,N
1549907895.8,286047000.6,N
1549907915.7,286046999.8,N
1549907935.5,286047002.6,N
1549907955.3,286047000.9,N
1549907975.2,286047001.8,N
1549907995.0,286047003.2,N
1549907995.9,286047003.2,N
